AFR185 VHHH-LFPG

Flight info

Callsign AFR185
Flight time N/A
Altitude 34100
Route BEKOL A461 SHL W22 TEPID W24 OSNOV G586 QP B330 ELKAL W179 IGNAK/K0928S1070 W179 WFX/K0930S1040 W179 OMBON/K0919S1100 Y1 SADAN W186 KAMUD/K0895F380 L141 TISIB L163 SR N193 OGOLI T898 DARVA/N0489F380 B476 METKA L88 RASAM N199 EDATA M11 MATAL/N0493F400 M11 REBLO DCT CRM DCT MAKOL Q12 GOGAR Q18 DOLAP DCT ROTAR DCT SRN DCT CERVI DCT MOLUS DCT UNKIR/N0490F380 DCT GIVRI DCT TINIL
Aircraft A359/H-SDE2E3GHIJ3J4J5LM1ORWXY/LB1D1

Departure

Time N/A
Airport Hong Kong International Airport (VHHH)

Arrival

Time 2026-05-08 03:39
Airport Charles de Gaulle International Airport (LFPG)
Time Latitude Longitude Altitude Speed Heading
2026-05-08 01:35 43.97625 20.14350 40072 ft 443 kts 285°
2026-05-08 01:36 43.98509 20.10245 40068 ft 443 kts 285°
2026-05-08 01:36 44.00272 20.02040 40069 ft 443 kts 285°
2026-05-08 01:37 44.02028 19.93836 40080 ft 443 kts 284°
2026-05-08 01:37 44.03776 19.85639 40073 ft 442 kts 284°
2026-05-08 01:38 44.05515 19.77445 40073 ft 442 kts 284°
2026-05-08 01:38 44.07249 19.69246 40065 ft 442 kts 284°
2026-05-08 01:39 44.08979 19.61045 40085 ft 442 kts 284°
2026-05-08 01:39 44.10699 19.52845 40069 ft 440 kts 284°
2026-05-08 01:40 44.12394 19.44727 40069 ft 440 kts 284°
2026-05-08 01:40 44.14108 19.36492 40070 ft 440 kts 284°
2026-05-08 01:41 44.15795 19.28353 40070 ft 440 kts 284°
2026-05-08 01:41 44.17485 19.20172 40079 ft 439 kts 284°
2026-05-08 01:42 44.19166 19.11998 40078 ft 439 kts 284°
2026-05-08 01:42 44.20840 19.03822 40065 ft 439 kts 284°
2026-05-08 01:43 44.22510 18.95633 40082 ft 439 kts 283°
2026-05-08 01:43 44.24173 18.87448 40077 ft 438 kts 283°
2026-05-08 01:44 44.25829 18.79268 40079 ft 438 kts 283°
2026-05-08 01:44 44.27478 18.71083 40077 ft 438 kts 283°
2026-05-08 01:45 44.29120 18.62896 40081 ft 438 kts 283°
2026-05-08 01:45 44.30756 18.54714 40082 ft 438 kts 283°
2026-05-08 01:46 44.32386 18.46521 40080 ft 438 kts 283°
2026-05-08 01:46 44.33998 18.38385 40083 ft 438 kts 283°
2026-05-08 01:47 44.35617 18.30183 40078 ft 438 kts 283°
2026-05-08 01:47 44.37229 18.21980 40086 ft 437 kts 283°
2026-05-08 01:48 44.39634 18.09689 40076 ft 437 kts 283°
2026-05-08 01:48 44.41228 18.01491 40076 ft 437 kts 283°
2026-05-08 01:49 44.42818 17.93290 40075 ft 437 kts 283°
2026-05-08 01:49 44.44399 17.85090 40080 ft 436 kts 282°
2026-05-08 01:50 44.45973 17.76892 40084 ft 436 kts 282°
2026-05-08 01:50 44.47530 17.68752 40084 ft 436 kts 282°
2026-05-08 01:51 44.49091 17.60553 40086 ft 436 kts 282°
2026-05-08 01:51 44.50645 17.52357 40099 ft 436 kts 282°
2026-05-08 01:52 44.52196 17.44141 40089 ft 437 kts 282°
2026-05-08 01:52 44.53743 17.35911 40086 ft 436 kts 282°
2026-05-08 01:53 44.55285 17.27673 40088 ft 436 kts 282°
2026-05-08 01:53 44.56819 17.19438 40090 ft 436 kts 281°
2026-05-08 01:54 44.58347 17.11199 40087 ft 437 kts 281°
2026-05-08 01:54 44.59872 17.02940 40091 ft 437 kts 281°
2026-05-08 01:55 44.61392 16.94677 40086 ft 437 kts 281°
2026-05-08 01:55 44.62904 16.86418 40086 ft 437 kts 281°
2026-05-08 01:56 44.64411 16.78148 40085 ft 437 kts 281°
2026-05-08 01:56 44.65914 16.69865 40085 ft 438 kts 281°
2026-05-08 01:57 44.67412 16.61571 40089 ft 438 kts 281°
2026-05-08 01:57 44.68904 16.53272 40090 ft 438 kts 281°
2026-05-08 01:58 44.70389 16.44971 40093 ft 438 kts 281°
2026-05-08 01:58 44.71872 16.36648 40085 ft 439 kts 281°
2026-05-08 01:59 44.73348 16.28324 40087 ft 440 kts 281°
2026-05-08 01:59 44.74823 16.19969 40083 ft 440 kts 280°
2026-05-08 02:00 44.76283 16.11660 40099 ft 440 kts 280°
2026-05-08 02:00 44.77745 16.03303 40091 ft 440 kts 280°
2026-05-08 02:01 44.79202 15.94932 40088 ft 440 kts 280°
2026-05-08 02:01 44.80653 15.86560 40088 ft 440 kts 280°
2026-05-08 02:02 44.82097 15.78186 40093 ft 440 kts 280°
2026-05-08 02:02 44.83536 15.69793 40095 ft 442 kts 280°
2026-05-08 02:03 44.84967 15.61417 40089 ft 443 kts 280°
2026-05-08 02:03 44.86402 15.52979 40085 ft 443 kts 280°
2026-05-08 02:04 44.87829 15.44544 40087 ft 443 kts 280°
2026-05-08 02:04 44.89252 15.36090 40090 ft 443 kts 280°
2026-05-08 02:05 44.90674 15.27599 40086 ft 445 kts 280°
2026-05-08 02:05 44.91852 15.20535 40087 ft 445 kts 280°
2026-05-08 02:06 44.93264 15.12031 40088 ft 445 kts 280°
2026-05-08 02:06 44.94672 15.03511 40076 ft 445 kts 280°
2026-05-08 02:07 44.96072 14.94993 40070 ft 445 kts 280°
2026-05-08 02:07 44.97465 14.86479 40068 ft 445 kts 280°
2026-05-08 02:08 44.98851 14.77959 40056 ft 445 kts 279°
2026-05-08 02:08 45.00231 14.69437 40062 ft 445 kts 279°
2026-05-08 02:09 45.01604 14.60906 40062 ft 446 kts 279°
2026-05-08 02:09 45.02975 14.52354 40066 ft 447 kts 279°
2026-05-08 02:10 45.04341 14.43786 40065 ft 447 kts 279°
2026-05-08 02:10 45.05701 14.35213 40065 ft 447 kts 279°
2026-05-08 02:11 45.07052 14.26644 40055 ft 447 kts 280°
2026-05-08 02:11 45.08394 14.18097 40049 ft 447 kts 279°
2026-05-08 02:12 45.09736 14.09504 40044 ft 448 kts 280°
2026-05-08 02:12 45.11074 14.00889 40042 ft 448 kts 280°
2026-05-08 02:13 45.12408 13.92259 40052 ft 448 kts 280°
2026-05-08 02:13 45.13733 13.83631 40046 ft 448 kts 280°
2026-05-08 02:14 45.15052 13.75002 40044 ft 448 kts 280°
2026-05-08 02:14 45.16366 13.66364 40050 ft 448 kts 280°
2026-05-08 02:15 45.17672 13.57725 40063 ft 448 kts 280°
2026-05-08 02:15 45.18962 13.49147 40050 ft 448 kts 280°
2026-05-08 02:16 45.20256 13.40490 40047 ft 448 kts 280°
2026-05-08 02:16 45.21544 13.31834 40042 ft 448 kts 280°
2026-05-08 02:17 45.22825 13.23175 40034 ft 448 kts 279°
2026-05-08 02:17 45.24100 13.14507 40041 ft 449 kts 279°
2026-05-08 02:18 45.25368 13.05838 40036 ft 449 kts 279°
2026-05-08 02:18 45.26624 12.97153 40036 ft 449 kts 279°
2026-05-08 02:19 45.27653 12.88413 40032 ft 448 kts 277°
2026-05-08 02:19 45.28580 12.79656 40041 ft 448 kts 277°
2026-05-08 02:20 45.29522 12.70951 40031 ft 449 kts 277°
2026-05-08 02:20 45.30491 12.62191 40039 ft 449 kts 277°
2026-05-08 02:21 45.31464 12.53424 40040 ft 449 kts 277°
2026-05-08 02:21 45.32429 12.44656 40049 ft 449 kts 277°
2026-05-08 02:22 45.33387 12.35884 40033 ft 449 kts 277°
2026-05-08 02:22 45.34339 12.27092 40041 ft 449 kts 277°
2026-05-08 02:23 45.35282 12.18311 40026 ft 449 kts 277°
2026-05-08 02:23 45.36219 12.09523 40032 ft 449 kts 277°
2026-05-08 02:24 45.37150 12.00739 40036 ft 449 kts 277°
2026-05-08 02:24 45.38073 11.91950 40041 ft 449 kts 277°
2026-05-08 02:25 45.38989 11.83160 40043 ft 449 kts 276°
2026-05-08 02:25 45.39899 11.74362 40043 ft 449 kts 276°
2026-05-08 02:26 45.40803 11.65564 40041 ft 450 kts 276°
2026-05-08 02:26 45.41701 11.56747 40039 ft 450 kts 276°
2026-05-08 02:27 45.42592 11.47929 40040 ft 450 kts 276°
2026-05-08 02:27 45.43473 11.39151 40037 ft 450 kts 276°
2026-05-08 02:28 45.44351 11.30314 40035 ft 451 kts 276°
2026-05-08 02:28 45.45223 11.21477 40027 ft 451 kts 276°
2026-05-08 02:29 45.46088 11.12628 40023 ft 450 kts 276°
2026-05-08 02:29 45.46948 11.03782 40021 ft 450 kts 276°
2026-05-08 02:30 45.47798 10.94943 40023 ft 450 kts 276°
2026-05-08 02:30 45.48642 10.86086 40021 ft 452 kts 276°
2026-05-08 02:31 45.49483 10.77200 40020 ft 453 kts 276°
2026-05-08 02:31 45.50319 10.68301 40017 ft 453 kts 276°
2026-05-08 02:32 45.51141 10.59463 40016 ft 453 kts 276°
2026-05-08 02:32 45.51963 10.50560 40019 ft 453 kts 275°
2026-05-08 02:33 45.52778 10.41635 40019 ft 454 kts 275°
2026-05-08 02:33 45.53587 10.32709 40023 ft 454 kts 275°
2026-05-08 02:34 45.54389 10.23781 39995 ft 454 kts 275°
2026-05-08 02:34 45.55185 10.14840 40000 ft 454 kts 275°
2026-05-08 02:35 45.55976 10.05879 40002 ft 456 kts 275°
2026-05-08 02:35 45.56760 9.96907 40036 ft 456 kts 275°
2026-05-08 02:36 45.57539 9.87909 40041 ft 456 kts 275°
2026-05-08 02:36 45.58305 9.78985 40060 ft 456 kts 275°
2026-05-08 02:37 45.59070 9.69985 40049 ft 458 kts 275°
2026-05-08 02:37 45.59830 9.60955 39966 ft 458 kts 275°
2026-05-08 02:38 45.60584 9.51909 39966 ft 458 kts 275°
2026-05-08 02:38 45.61330 9.42877 39966 ft 458 kts 275°
2026-05-08 02:39 45.62071 9.33818 40022 ft 460 kts 275°
2026-05-08 02:39 45.62806 9.24728 40020 ft 460 kts 275°
2026-05-08 02:40 45.63535 9.15635 40019 ft 460 kts 275°
2026-05-08 02:40 45.64258 9.06540 40019 ft 460 kts 274°
2026-05-08 02:41 45.65660 8.97594 40021 ft 464 kts 284°
2026-05-08 02:41 45.67589 8.88777 40020 ft 465 kts 285°
2026-05-08 02:42 45.69579 8.80037 40020 ft 465 kts 285°
2026-05-08 02:42 45.71575 8.71237 40027 ft 465 kts 285°
2026-05-08 02:43 45.73551 8.62420 40034 ft 465 kts 285°
2026-05-08 02:43 45.75519 8.53577 40026 ft 466 kts 285°
2026-05-08 02:44 45.77482 8.44720 40032 ft 466 kts 285°
2026-05-08 02:44 45.79435 8.35869 40033 ft 466 kts 285°
2026-05-08 02:45 45.81371 8.27058 40048 ft 466 kts 285°
2026-05-08 02:45 45.83314 8.18180 40041 ft 467 kts 285°
2026-05-08 02:46 45.85252 8.09287 40033 ft 467 kts 285°
2026-05-08 02:46 45.87186 8.00378 40049 ft 467 kts 284°
2026-05-08 02:47 45.89111 7.91468 40048 ft 467 kts 284°
2026-05-08 02:47 45.91022 7.82557 40060 ft 469 kts 284°
2026-05-08 02:48 45.92941 7.73600 40056 ft 468 kts 284°
2026-05-08 02:48 45.94851 7.64672 40054 ft 467 kts 284°
2026-05-08 02:49 45.97043 7.55867 40057 ft 471 kts 293°
2026-05-08 02:49 46.00632 7.47950 40060 ft 475 kts 304°
2026-05-08 02:50 46.04730 7.40444 40066 ft 477 kts 306°
2026-05-08 02:50 46.08885 7.33017 40071 ft 476 kts 306°
2026-05-08 02:51 46.13029 7.25555 40073 ft 476 kts 305°
2026-05-08 02:51 46.17122 7.18119 40076 ft 477 kts 305°
2026-05-08 02:52 46.21251 7.10579 40067 ft 480 kts 305°
2026-05-08 02:52 46.25388 7.03004 40058 ft 480 kts 305°
2026-05-08 02:53 46.28817 6.96712 40049 ft 479 kts 305°
2026-05-08 02:53 46.33644 6.87834 40038 ft 479 kts 305°
2026-05-08 02:54 46.37065 6.81522 40048 ft 480 kts 305°
2026-05-08 02:54 46.41847 6.72678 40037 ft 480 kts 305°
2026-05-08 02:55 46.46773 6.61960 40040 ft 477 kts 298°
2026-05-08 02:56 46.50076 6.53688 40040 ft 477 kts 297°
2026-05-08 02:56 46.53355 6.45330 40055 ft 477 kts 297°
2026-05-08 02:57 46.56637 6.36951 40051 ft 477 kts 297°
2026-05-08 02:57 46.59924 6.28556 40048 ft 477 kts 297°
2026-05-08 02:58 46.63206 6.20158 40046 ft 477 kts 297°
2026-05-08 02:58 46.66479 6.11759 40047 ft 477 kts 297°
2026-05-08 02:59 46.69749 6.03340 40054 ft 477 kts 297°
2026-05-08 02:59 46.73010 5.94916 40051 ft 478 kts 297°
2026-05-08 03:00 46.76269 5.86472 40051 ft 478 kts 296°
2026-05-08 03:00 46.79637 5.78119 40061 ft 480 kts 302°
2026-05-08 03:01 46.84235 5.71033 40050 ft 486 kts 320°
2026-05-08 03:01 46.89970 5.65829 40036 ft 490 kts 328°
2026-05-08 03:02 46.95955 5.61038 40026 ft 491 kts 329°
2026-05-08 03:02 47.01958 5.56288 40021 ft 491 kts 328°
2026-05-08 03:03 47.07948 5.51489 40024 ft 490 kts 328°
2026-05-08 03:03 47.13928 5.46653 40034 ft 490 kts 328°
2026-05-08 03:04 47.19885 5.41815 40038 ft 490 kts 328°
2026-05-08 03:04 47.25865 5.36947 40051 ft 490 kts 328°
2026-05-08 03:05 47.31818 5.32095 39673 ft 488 kts 328°
2026-05-08 03:05 47.34789 5.29670 38980 ft 489 kts 328°
2026-05-08 03:05 47.37734 5.27260 38184 ft 491 kts 328°
2026-05-08 03:05 47.40717 5.24818 37472 ft 490 kts 328°
2026-05-08 03:06 47.43693 5.22379 36804 ft 488 kts 328°
2026-05-08 03:06 47.46661 5.19942 36108 ft 488 kts 328°
2026-05-08 03:06 47.49629 5.17503 35403 ft 488 kts 328°
2026-05-08 03:06 47.52596 5.15060 34655 ft 489 kts 328°
2026-05-08 03:07 47.55585 5.12596 33792 ft 492 kts 328°
2026-05-08 03:07 47.58529 5.10011 32907 ft 491 kts 323°
2026-05-08 03:07 47.61234 5.06944 32053 ft 489 kts 317°
2026-05-08 03:07 47.63836 5.03710 31175 ft 490 kts 316°
2026-05-08 03:08 47.66436 5.00440 30288 ft 491 kts 316°
2026-05-08 03:08 47.69051 4.97146 29248 ft 493 kts 316°
2026-05-08 03:08 47.71662 4.93858 28448 ft 489 kts 317°
2026-05-08 03:08 47.74245 4.90605 27816 ft 483 kts 317°
2026-05-08 03:09 47.76785 4.87397 27530 ft 478 kts 316°
2026-05-08 03:09 47.79278 4.84231 27228 ft 477 kts 316°
2026-05-08 03:09 47.81796 4.81030 26884 ft 476 kts 317°
2026-05-08 03:09 47.84306 4.77837 26533 ft 473 kts 317°
2026-05-08 03:10 47.86801 4.74661 26202 ft 471 kts 317°
2026-05-08 03:10 47.89283 4.71497 25841 ft 468 kts 317°
2026-05-08 03:10 47.91748 4.68351 25500 ft 466 kts 317°
2026-05-08 03:10 47.94204 4.65213 25182 ft 463 kts 317°
2026-05-08 03:11 47.96647 4.62086 24821 ft 461 kts 317°
2026-05-08 03:11 47.99072 4.58980 24480 ft 459 kts 317°
2026-05-08 03:11 48.01490 4.55878 24144 ft 457 kts 317°
2026-05-08 03:11 48.03866 4.52827 23812 ft 454 kts 317°
2026-05-08 03:12 48.06256 4.49753 23454 ft 452 kts 317°
2026-05-08 03:12 48.08635 4.46690 23118 ft 450 kts 317°
2026-05-08 03:12 48.10999 4.43641 22772 ft 448 kts 317°
2026-05-08 03:12 48.13353 4.40602 22443 ft 446 kts 317°
2026-05-08 03:13 48.15699 4.37571 22117 ft 445 kts 317°
2026-05-08 03:13 48.18036 4.34545 21786 ft 443 kts 317°
2026-05-08 03:13 48.20368 4.31524 21450 ft 442 kts 317°
2026-05-08 03:13 48.22687 4.28516 21136 ft 440 kts 317°
2026-05-08 03:14 48.24990 4.25515 20814 ft 438 kts 316°
2026-05-08 03:14 48.27114 4.22273 20500 ft 434 kts 309°
2026-05-08 03:14 48.29055 4.18812 20193 ft 432 kts 307°
2026-05-08 03:14 48.30954 4.15342 19920 ft 428 kts 307°
2026-05-08 03:15 48.32809 4.11947 19683 ft 413 kts 307°
2026-05-08 03:15 48.34605 4.08663 19445 ft 401 kts 307°
2026-05-08 03:15 48.36358 4.05457 19045 ft 393 kts 307°
2026-05-08 03:15 48.38088 4.02287 18697 ft 392 kts 307°
2026-05-08 03:16 48.39816 3.99116 18399 ft 392 kts 307°
2026-05-08 03:16 48.41545 3.95945 18081 ft 391 kts 307°
2026-05-08 03:16 48.43267 3.92783 17784 ft 389 kts 307°
2026-05-08 03:16 48.44978 3.89638 17494 ft 387 kts 307°
2026-05-08 03:17 48.46666 3.86534 17206 ft 386 kts 307°
2026-05-08 03:17 48.48385 3.83368 16938 ft 384 kts 307°
2026-05-08 03:17 48.50070 3.80261 16654 ft 383 kts 307°
2026-05-08 03:17 48.51731 3.77196 16375 ft 381 kts 307°
2026-05-08 03:18 48.53397 3.74095 16081 ft 380 kts 306°
2026-05-08 03:18 48.54914 3.70845 15863 ft 377 kts 301°
2026-05-08 03:18 48.56312 3.67615 15608 ft 376 kts 301°
2026-05-08 03:18 48.57524 3.64788 15395 ft 375 kts 301°
2026-05-08 03:19 48.58072 3.63509 15307 ft 374 kts 301°
2026-05-08 03:19 48.59344 3.60541 15088 ft 373 kts 301°
2026-05-08 03:19 48.60755 3.57247 15043 ft 372 kts 301°
2026-05-08 03:19 48.62164 3.53965 14981 ft 372 kts 301°
2026-05-08 03:20 48.63566 3.50693 14691 ft 371 kts 301°
2026-05-08 03:20 48.64965 3.47417 14437 ft 370 kts 301°
2026-05-08 03:20 48.66360 3.44146 14220 ft 370 kts 301°
2026-05-08 03:20 48.67734 3.40925 13989 ft 369 kts 301°
2026-05-08 03:21 48.69125 3.37660 13764 ft 368 kts 301°
2026-05-08 03:21 48.70506 3.34413 13535 ft 366 kts 301°
2026-05-08 03:21 48.71883 3.31176 13312 ft 365 kts 301°
2026-05-08 03:21 48.73253 3.27950 13102 ft 363 kts 301°
2026-05-08 03:22 48.74615 3.24736 12881 ft 362 kts 301°
2026-05-08 03:22 48.75971 3.21535 12672 ft 360 kts 301°
2026-05-08 03:22 48.77320 3.18347 12451 ft 358 kts 301°
2026-05-08 03:22 48.78662 3.15170 12235 ft 357 kts 301°
2026-05-08 03:23 48.79996 3.12011 12041 ft 355 kts 301°
2026-05-08 03:23 48.81326 3.08857 11832 ft 354 kts 301°
2026-05-08 03:23 48.82645 3.05725 11622 ft 352 kts 301°
2026-05-08 03:23 48.83971 3.02597 11408 ft 351 kts 302°
2026-05-08 03:24 48.85481 2.99691 11196 ft 350 kts 309°
2026-05-08 03:24 48.87114 2.96958 10999 ft 349 kts 310°
2026-05-08 03:24 48.88749 2.94265 10826 ft 340 kts 310°
2026-05-08 03:24 48.90314 2.91682 10651 ft 326 kts 310°
2026-05-08 03:25 48.91796 2.89227 10455 ft 313 kts 310°
2026-05-08 03:25 48.93057 2.86632 10263 ft 298 kts 295°
2026-05-08 03:25 48.93595 2.83707 10084 ft 283 kts 272°
2026-05-08 03:25 48.93540 2.80752 9895 ft 276 kts 264°
2026-05-08 03:26 48.93377 2.77835 9712 ft 277 kts 264°
2026-05-08 03:26 48.93211 2.74913 9520 ft 277 kts 264°
2026-05-08 03:26 48.93049 2.72002 9331 ft 276 kts 264°
2026-05-08 03:26 48.92891 2.69093 9168 ft 276 kts 265°
2026-05-08 03:27 48.92733 2.66180 8999 ft 276 kts 265°
2026-05-08 03:27 48.92578 2.63314 8842 ft 275 kts 265°
2026-05-08 03:27 48.92421 2.60415 8681 ft 275 kts 265°
2026-05-08 03:27 48.92264 2.57519 8515 ft 275 kts 265°
2026-05-08 03:28 48.92107 2.54623 8347 ft 274 kts 265°
2026-05-08 03:28 48.91949 2.51737 8184 ft 274 kts 265°
2026-05-08 03:28 48.91790 2.48841 8023 ft 274 kts 265°
2026-05-08 03:28 48.91632 2.45966 7864 ft 274 kts 265°
2026-05-08 03:29 48.91476 2.43078 7703 ft 273 kts 265°
2026-05-08 03:29 48.91315 2.40207 7539 ft 273 kts 265°
2026-05-08 03:29 48.91153 2.37328 7379 ft 273 kts 265°
2026-05-08 03:29 48.90990 2.34455 7222 ft 273 kts 265°
2026-05-08 03:30 48.90665 2.28714 6892 ft 272 kts 265°
2026-05-08 03:30 48.90338 2.22986 6569 ft 272 kts 265°
2026-05-08 03:31 48.90233 2.17367 6223 ft 256 kts 284°
2026-05-08 03:31 48.92372 2.13682 5958 ft 230 kts 341°
2026-05-08 03:32 48.93942 2.13380 5913 ft 234 kts
2026-05-08 03:32 48.95548 2.13808 5836 ft 236 kts 21°
2026-05-08 03:32 48.96777 2.15342 5776 ft 226 kts 59°
2026-05-08 03:32 48.97216 2.17569 5615 ft 218 kts 82°
2026-05-08 03:33 48.97331 2.19858 5337 ft 217 kts 86°
2026-05-08 03:33 48.97437 2.22151 4990 ft 218 kts 85°
2026-05-08 03:33 48.97572 2.24461 4611 ft 220 kts 85°
2026-05-08 03:33 48.97697 2.26795 4250 ft 221 kts 85°
2026-05-08 03:34 48.97821 2.29122 3914 ft 218 kts 85°
2026-05-08 03:34 48.97942 2.31367 3630 ft 207 kts 86°
2026-05-08 03:34 48.98055 2.33479 3384 ft 194 kts 86°
2026-05-08 03:34 48.98162 2.35469 3121 ft 185 kts 86°
2026-05-08 03:35 48.98265 2.37393 2875 ft 180 kts 86°
2026-05-08 03:35 48.98365 2.39238 2628 ft 169 kts 86°
2026-05-08 03:35 48.98552 2.42299 2185 ft 151 kts 85°
2026-05-08 03:36 48.98635 2.43814 2037 ft 137 kts 85°
2026-05-08 03:36 48.98684 2.45220 1879 ft 133 kts 87°
2026-05-08 03:36 48.98768 2.46624 1668 ft 133 kts 83°
2026-05-08 03:36 48.98852 2.48021 1490 ft 133 kts 83°
2026-05-08 03:37 48.98919 2.49425 1350 ft 133 kts 83°
2026-05-08 03:37 48.98994 2.50827 1149 ft 133 kts 80°
2026-05-08 03:37 48.99065 2.52237 944 ft 133 kts 83°
2026-05-08 03:37 48.99137 2.53644 767 ft 133 kts 82°
2026-05-08 03:38 48.99210 2.55051 577 ft 134 kts 80°
2026-05-08 03:38 48.99286 2.56469 403 ft 135 kts 79°
2026-05-08 03:38 48.99361 2.57820 365 ft 109 kts 87°
2026-05-08 03:38 48.99404 2.58665 366 ft 56 kts 85°
2026-05-08 03:39 48.99442 2.59144 365 ft 37 kts 72°
2026-05-08 03:39 48.99535 2.59478 366 ft 22 kts 65°
2026-05-08 03:39 48.99607 2.59669 368 ft 19 kts 35°
2026-05-08 03:39 48.99738 2.59682 365 ft 20 kts 356°
2026-05-08 03:40 48.99886 2.59663 360 ft 19 kts 356°
2026-05-08 03:40 49.00006 2.59650 367 ft 15 kts 355°
2026-05-08 03:40 49.00076 2.59559 368 ft 15 kts 275°
2026-05-08 03:40 49.00068 2.59390 366 ft 16 kts 265°
2026-05-08 03:41 49.00062 2.59248 366 ft 11 kts 265°
2026-05-08 03:41 49.00055 2.59119 367 ft 10 kts 264°
2026-05-08 03:41 49.00053 2.59090 362 ft 0 kts 264°
2026-05-08 03:42 49.00053 2.59089 362 ft 0 kts 264°
2026-05-08 03:42 49.00052 2.59068 367 ft 5 kts 263°
2026-05-08 03:42 49.00047 2.58995 366 ft 9 kts 265°
2026-05-08 03:42 49.00040 2.58881 364 ft 13 kts 265°
2026-05-08 03:43 49.00034 2.58750 360 ft 13 kts 265°
2026-05-08 03:43 49.00025 2.58597 360 ft 16 kts 265°
2026-05-08 03:43 49.00018 2.58459 366 ft 13 kts 265°
2026-05-08 03:43 49.00014 2.58384 366 ft 5 kts 266°
2026-05-08 03:44 49.00031 2.58335 362 ft 6 kts 324°
2026-05-08 03:44 49.00077 2.58295 368 ft 9 kts 315°
2026-05-08 03:44 49.00088 2.58199 367 ft 11 kts 266°
2026-05-08 03:44 49.00080 2.58069 363 ft 14 kts 264°
2026-05-08 03:45 49.00071 2.57918 362 ft 13 kts 265°
2026-05-08 03:45 49.00069 2.57864 367 ft 2 kts 273°
2026-05-08 03:45 49.00094 2.57833 367 ft 6 kts 342°
2026-05-08 03:45 49.00141 2.57822 362 ft 5 kts 356°
2026-05-08 03:46 49.00148 2.57821 361 ft 3 kts 355°
2026-05-08 03:46 49.00152 2.57821 361 ft 0 kts 355°